Hourly Weather Sanok

Today, 8 July, Wednesday

Time Temperature Precipitation Wind Pressure Humidity
00:00 +10°C° 0 mm 1 mps 737 mmHg 93%
01:00 +10°C° 0 mm 1 mps 737 mmHg 93%
02:00 +10°C° 0 mm 1 mps 737 mmHg 92%
03:00 +10°C° 0 mm 1 mps 736 mmHg 92%
04:00 +9°C° 0 mm 1 mps 736 mmHg 92%
05:00 +11°C° 0 mm 1 mps 736 mmHg 86%
06:00 +13°C° 0 mm 1 mps 736 mmHg 80%
07:00 +16°C° 0 mm 1 mps 736 mmHg 73%
08:00 +17°C° 0 mm 2 mps 737 mmHg 66%
09:00 +18°C° 0 mm 2 mps 737 mmHg 60%
10:00 +20°C° 0 mm 3 mps 737 mmHg 53%
11:00 +20°C° 0 mm 3 mps 737 mmHg 53%
12:00 +20°C° 0 mm 3 mps 736 mmHg 53%
13:00 +21°C° 0 mm 4 mps 736 mmHg 53%
14:00 +21°C° 0 mm 4 mps 736 mmHg 55%
15:00 +21°C° 0 mm 4 mps 736 mmHg 57%
16:00 +21°C° 0 mm 4 mps 736 mmHg 59%
17:00 +19°C° 0.1 mm 3 mps 736 mmHg 68%
18:00 +18°C° 0.1 mm 3 mps 736 mmHg 78%
19:00 +16°C° 0.1 mm 2 mps 736 mmHg 87%
20:00 +16°C° 0.1 mm 2 mps 736 mmHg 90%
21:00 +15°C° 0.1 mm 1 mps 736 mmHg 93%
22:00 +14°C° 0.1 mm 1 mps 736 mmHg 96%
23:00 +13°C° 0.6 mm 0 mps 736 mmHg 96%

Tomorrow, 9 July, Thursday

Time Temperature Precipitation Wind Pressure Humidity
00:00 +13°C° 0.6 mm 0 mps 736 mmHg 97%
01:00 +13°C° 0.6 mm 0 mps 737 mmHg 98%
02:00 +13°C° 0.9 mm 0 mps 736 mmHg 98%
03:00 +13°C° 0.9 mm 0 mps 736 mmHg 98%
04:00 +13°C° 0.9 mm 0 mps 736 mmHg 98%
05:00 +13°C° 0.1 mm 0 mps 737 mmHg 97%
06:00 +15°C° 0.1 mm 1 mps 737 mmHg 95%
07:00 +15°C° 0.1 mm 1 mps 737 mmHg 94%
08:00 +16°C° 0.1 mm 1 mps 737 mmHg 88%
09:00 +18°C° 0.1 mm 1 mps 738 mmHg 83%
10:00 +20°C° 0.1 mm 1 mps 738 mmHg 78%
11:00 +21°C° 0.2 mm 1 mps 738 mmHg 74%
12:00 +22°C° 0.2 mm 1 mps 738 mmHg 69%
13:00 +22°C° 0.2 mm 1 mps 738 mmHg 65%
14:00 +22°C° 0.1 mm 1 mps 738 mmHg 66%
15:00 +22°C° 0.1 mm 1 mps 737 mmHg 68%
16:00 +22°C° 0.1 mm 1 mps 737 mmHg 70%
17:00 +21°C° 0.1 mm 1 mps 737 mmHg 76%
18:00 +20°C° 0.1 mm 1 mps 737 mmHg 83%
19:00 +19°C° 0.1 mm 1 mps 737 mmHg 89%
20:00 +18°C° 0 mm 1 mps 737 mmHg 91%
21:00 +16°C° 0 mm 2 mps 737 mmHg 93%
22:00 +16°C° 0 mm 2 mps 737 mmHg 94%
23:00 +16°C° 0 mm 2 mps 737 mmHg 95%

Day after tomorrow, 10 July, Friday

Time Temperature Precipitation Wind Pressure Humidity
00:00 +16°C° 0 mm 2 mps 737 mmHg 95%
01:00 +16°C° 0 mm 2 mps 737 mmHg 95%
02:00 +16°C° 0 mm 3 mps 737 mmHg 95%
03:00 +16°C° 0 mm 3 mps 736 mmHg 95%
04:00 +16°C° 0 mm 3 mps 736 mmHg 95%
05:00 +18°C° 0 mm 3 mps 736 mmHg 90%
06:00 +19°C° 0 mm 4 mps 736 mmHg 85%
07:00 +21°C° 0 mm 4 mps 737 mmHg 80%
08:00 +22°C° 0 mm 5 mps 736 mmHg 74%
09:00 +25°C° 0 mm 5 mps 736 mmHg 69%
10:00 +26°C° 0 mm 6 mps 736 mmHg 64%
11:00 +27°C° 0.1 mm 6 mps 736 mmHg 63%
12:00 +27°C° 0.1 mm 6 mps 736 mmHg 62%
13:00 +28°C° 0.1 mm 6 mps 736 mmHg 61%
14:00 +28°C° 0 mm 6 mps 735 mmHg 61%
15:00 +28°C° 0 mm 6 mps 735 mmHg 62%
16:00 +28°C° 0 mm 6 mps 735 mmHg 63%
17:00 +26°C° 0 mm 5 mps 735 mmHg 68%
18:00 +25°C° 0 mm 5 mps 735 mmHg 72%
19:00 +23°C° 0 mm 5 mps 735 mmHg 76%
20:00 +23°C° 0 mm 5 mps 735 mmHg 75%
21:00 +22°C° 0 mm 4 mps 735 mmHg 74%
22:00 +22°C° 0 mm 4 mps 735 mmHg 72%
23:00 +22°C° 0 mm 4 mps 735 mmHg 73%

11 July, Saturday

Time Temperature Precipitation Wind Pressure Humidity
00:00 +21°C° 0 mm 4 mps 735 mmHg 73%
01:00 +21°C° 0 mm 4 mps 735 mmHg 74%
02:00 +21°C° 0 mm 4 mps 735 mmHg 76%
03:00 +20°C° 0 mm 4 mps 735 mmHg 78%
04:00 +20°C° 0 mm 3 mps 735 mmHg 80%
05:00 +21°C° 0 mm 4 mps 735 mmHg 77%
06:00 +23°C° 0 mm 4 mps 735 mmHg 74%
07:00 +25°C° 0 mm 4 mps 735 mmHg 70%
08:00 +26°C° 0 mm 4 mps 735 mmHg 66%
09:00 +27°C° 0 mm 4 mps 735 mmHg 61%
10:00 +29°C° 0 mm 4 mps 736 mmHg 57%
11:00 +29°C° 0.3 mm 4 mps 735 mmHg 58%
12:00 +29°C° 0.3 mm 4 mps 735 mmHg 59%
13:00 +29°C° 0.3 mm 4 mps 735 mmHg 59%
14:00 +27°C° 1.2 mm 4 mps 735 mmHg 70%
15:00 +25°C° 1.2 mm 5 mps 735 mmHg 81%
16:00 +22°C° 1.2 mm 5 mps 735 mmHg 92%
17:00 +20°C° 0.6 mm 5 mps 736 mmHg 94%
18:00 +18°C° 0.6 mm 4 mps 736 mmHg 95%
19:00 +14°C° 0.6 mm 4 mps 736 mmHg 97%
20:00 +14°C° 0.1 mm 4 mps 737 mmHg 97%
21:00 +14°C° 0.1 mm 4 mps 737 mmHg 97%
22:00 +14°C° 0.1 mm 3 mps 738 mmHg 97%
23:00 +14°C° 0.6 mm 4 mps 738 mmHg 97%

12 July, Sunday

Time Temperature Precipitation Wind Pressure Humidity
00:00 +13°C° 0.6 mm 4 mps 738 mmHg 98%
01:00 +13°C° 0.6 mm 4 mps 738 mmHg 98%
02:00 +13°C° 2.9 mm 4 mps 738 mmHg 98%
03:00 +12°C° 2.9 mm 4 mps 738 mmHg 98%
04:00 +12°C° 2.9 mm 4 mps 738 mmHg 98%
05:00 +12°C° 0.7 mm 4 mps 738 mmHg 97%
06:00 +12°C° 0.7 mm 4 mps 738 mmHg 96%
07:00 +12°C° 0.7 mm 4 mps 739 mmHg 95%
08:00 +13°C° 0.1 mm 3 mps 739 mmHg 91%
09:00 +14°C° 0.1 mm 3 mps 740 mmHg 88%
10:00 +14°C° 0.1 mm 3 mps 740 mmHg 84%
11:00 +16°C° 0.2 mm 3 mps 740 mmHg 79%
12:00 +18°C° 0.2 mm 3 mps 740 mmHg 74%
13:00 +19°C° 0.2 mm 2 mps 740 mmHg 69%
14:00 +18°C° 0.4 mm 2 mps 740 mmHg 74%
15:00 +18°C° 0.4 mm 3 mps 740 mmHg 80%
16:00 +17°C° 0.4 mm 3 mps 740 mmHg 85%
17:00 +16°C° 0.1 mm 2 mps 740 mmHg 87%
18:00 +15°C° 0.1 mm 2 mps 740 mmHg 90%
19:00 +15°C° 0.1 mm 1 mps 740 mmHg 92%
20:00 +14°C° 0 mm 1 mps 740 mmHg 93%
21:00 +13°C° 0 mm 1 mps 740 mmHg 93%
22:00 +12°C° 0 mm 1 mps 740 mmHg 94%
23:00 +12°C° 0 mm 1 mps 740 mmHg 94%

13 July, Monday

Time Temperature Precipitation Wind Pressure Humidity
00:00 +11°C° 0 mm 1 mps 740 mmHg 94%
01:00 +11°C° 0 mm 1 mps 740 mmHg 95%
02:00 +11°C° 0 mm 1 mps 740 mmHg 95%
03:00 +10°C° 0 mm 1 mps 740 mmHg 95%
04:00 +10°C° 0 mm 1 mps 740 mmHg 95%
05:00 +12°C° 0 mm 1 mps 740 mmHg 90%
06:00 +13°C° 0 mm 1 mps 740 mmHg 85%
07:00 +15°C° 0 mm 1 mps 740 mmHg 81%
08:00 +16°C° 0 mm 2 mps 740 mmHg 73%
09:00 +17°C° 0 mm 2 mps 740 mmHg 65%
10:00 +19°C° 0 mm 3 mps 740 mmHg 58%
11:00 +19°C° 0.1 mm 3 mps 740 mmHg 57%
12:00 +20°C° 0.1 mm 3 mps 740 mmHg 57%
13:00 +20°C° 0.1 mm 3 mps 739 mmHg 56%
14:00 +20°C° 0.1 mm 3 mps 739 mmHg 58%
15:00 +20°C° 0.1 mm 3 mps 739 mmHg 60%
16:00 +20°C° 0.1 mm 3 mps 739 mmHg 62%
17:00 +18°C° 0 mm 2 mps 738 mmHg 69%
18:00 +17°C° 0 mm 2 mps 738 mmHg 77%
19:00 +15°C° 0 mm 1 mps 738 mmHg 84%
20:00 +14°C° 0 mm 1 mps 738 mmHg 86%
21:00 +13°C° 0 mm 1 mps 738 mmHg 89%
22:00 +11°C° 0 mm 0 mps 738 mmHg 91%
23:00 +11°C° 0 mm 0 mps 738 mmHg 91%
Show more